Vertical_Velocity
-5 -0 -4 -1 3 -1 -0 0 -1 0 1 1 1 0 -1 2 -1 2 0 -0 1 1 2 -1 0 2 1 2 -8 0 -1 4 5 2 -2 -2 1 -2 -2 -1 2 -1 1 -1 8 -3 -1
-3 -3 2 -5 -4 1 -1 -2 -1 -1 -1 2 0 -0 1 2 1 2 2 1 1 -0 3 1 3 2 -1 -1 1 -1 2 0 -2 -1 1 2 -4 -2 -1 -1 -3 -2 -2 2 11 2 1
-2 -2 -4 2 0 -2 -1 -2 -0 -0 1 -0 -1 -0 1 1 3 7 3 1 3 -1 3 -0 1 -0 1 -16 2 -1 -2 6 5 -6 -7 -5 2 4 3 1 -3 5 -4 1 3 3 -1
-2 -0 -2 -1 -0 -2 -2 -1 0 -2 -1 2 -1 -1 -1 -1 1 -0 2 -2 3 1 3 3 2 1 -9 4 3 -1 1 2 7 6 6 4 6 3 -1 2 2 -2 -4 -1 -3 1 5
-5 -0 0 -3 0 0 -2 1 -1 0 -2 1 -1 -1 -1 -2 0 4 3 -2 2 3 3 2 1 1 -8 2 -1 1 1 -2 4 8 7 3 5 2 3 -3 -2 -1 -1 -0 1 1 -1
-3 -1 0 -5 -3 -4 1 0 1 1 0 0 0 -0 0 -1 -2 -3 -2 3 2 5 2 2 -1 -0 2 -6 -3 0 3 2 3 6 4 7 2 -1 -1 -1 -8 -2 0 1 -1 3 -5
-1 1 -1 -0 3 -2 -5 -1 -2 -2 -2 -1 0 -1 -1 0 2 5 -2 -1 3 2 3 -9 -8 -1 2 2 7 5 8 0 4 3 -2 2 -4 -3 -4 -2 -1 -2 -1 -1 2 5 -13
1 -4 -1 1 2 -0 2 -2 1 -0 -1 -0 0 0 0 -1 0 3 1 -3 5 2 -3 -2 4 2 5 5 -1 6 7 -4 0 -1 1 -2 -3 -4 -1 0 0 0 -1 2 6 2 -16
-4 1 -2 2 -0 -1 -1 -1 2 -1 -1 -2 -3 1 1 -0 -1 -1 -1 -3 4 1 1 1 -5 -3 -6 2 -3 -2 5 1 -3 0 -0 -5 -8 1 -0 1 2 0 -2 -0 -8 3 -0
-0 -0 1 -5 -2 5 -4 -2 -0 1 -1 -0 -3 0 1 1 1 2 -7 16 -1 4 -2 -4 3 -5 2 1 -2 4 4 -9 3 -7 -1 -3 -4 -2 1 -1 -3 1 -2 -3 -1 -1 -2
1 1 -2 -1 -2 0 4 -4 -5 -1 3 1 -1 0 1 2 1 -1 4 -4 4 2 1 1 3 5 3 -7 0 7 -1 5 -2 -2 -6 -17 1 1 1 -7 -2 -10 -3 -6 -2 -0 -5
-1 -0 2 -0 -1 3 -1 5 1 -2 -1 1 0 -1 1 1 -0 3 3 0 6 -8 -13 -0 0 0 0 2 1 5 1 0 2 -1 1 -4 0 -2 -9 0 -3 -2 -3 -2 -1 -1 2
-1 -2 5 2 1 -6 2 1 -1 -4 -2 1 -1 -2 -0 0 3 -1 2 6 -7 0 -6 1 -1 1 -1 1 3 0 -0 3 -3 -3 1 1 0 -0 -2 -2 1 -0 -2 -1 1 2 -5
0 -2 0 -0 -3 -1 -1 5 -0 -1 -4 -2 2 -2 0 1 -2 4 -2 -3 2 -4 0 -0 -1 2 -1 -3 1 1 2 2 -1 -1 -1 -3 -0 -1 -1 -4 -8 -2 -6 -8 -5 -2 -2
-4 -1 -7 0 -1 -1 1 -4 2 1 -5 -5 2 -1 0 1 0 -0 6 2 -3 -0 1 1 0 0 0 1 -6 -1 -1 -2 -2 -1 -5 -1 -0 -0 -1 0 -4 -5 1 -6 -4 -1 -2
1 0 -2 -6 4 2 -6 1 2 -1 6 -6 1 -1 -0 -1 0 1 2 -3 -2 -0 -0 -0 0 -1 -1 -0 -1 0 -0 -1 -0 -0 -0 -1 -3 0 1 -0 -0 -3 -4 -3 -2 -0 1
-3 -0 -2 2 -1 6 1 -4 2 -3 -1 2 -2 0 2 1 0 3 0 -1 -0 0 1 -3 1 -0 -1 -2 -2 -1 -3 0 0 1 -1 -1 -7 -1 -0 -2 0 0 1 1 -4 -3 -4
-4 -1 3 -1 1 -1 8 -2 -3 -0 1 2 -2 -4 2 -2 -1 0 0 0 1 0 -1 0 -2 0 1 0 0 -0 -2 -1 -0 -0 -1 -0 -3 -1 0 0 1 -0 0 -0 -1 -2 -0
-4 -6 -1 -3 -2 -0 0 2 -0 2 -6 0 -1 -0 0 3 -3 -1 -0 -0 1 -0 -0 1 0 -2 0 0 0 -1 0 -0 1 -1 -1 -2 -1 -2 -1 -1 -0 -1 -0 0 -0 -2 -1
-5 1 -7 -1 -3 -7 -7 -0 -4 -2 4 -4 -0 -4 -0 1 2 -1 -0 -1 -0 -1 -0 0 -0 -1 -1 1 -1 -0 0 -0 0 -0 -0 -4 -1 -3 -8 -3 -3 1 -0 -0 -2 -2 -2
3 -4 5 -3 -4 -2 -2 -6 -2 -3 1 -3 -1 -0 1 -3 -1 -0 -0 -1 0 1 0 0 -0 -0 -3 0 0 0 1 0 -0 1 -0 -4 -3 -2 2 1 -2 0 0 -0 -2 -0 -3
-3 -3 -1 -2 -2 -3 -6 -4 -9 -2 -2 -3 -1 -1 -1 -0 -0 1 -0 -2 -1 0 -1 -1 2 0 -0 -1 -3 -2 -3 -0 -5 0 -0 -0 2 -1 1 0 -1 -1 0 -0 0 1 -1
-1 -2 0 1 0 -2 -2 -2 -5 -8 -5 -2 1 -2 4 0 -1 -0 -1 -1 -2 -2 0 1 -3 -2 -1 1 -0 3 -3 -2 -1 -3 -0 -2 -3 -1 1 -0 -0 -3 0 1 1 -0 -1
-6 -3 -5 3 -7 -2 -1 -2 -1 -1 -3 -4 3 0 0 -2 -1 0 0 0 0 -0 -2 1 -1 -3 2 -3 1 -1 -6 -3 -4 1 -0 -1 -1 -2 0 -0 -3 1 0 0 -4 1 0
2 -3 -4 1 -0 -3 0 -2 -1 -1 -1 -2 -0 1 0 -0 1 -1 -2 -0 0 0 -1 -0 0 0 2 3 -2 0 -2 -4 -2 1 -2 -2 -2 -2 -5 -0 -2 -2 -1 -3 -3 -1 -0
-5 -3 -13 0 1 -5 -4 -3 -4 -3 3 -4 -2 1 1 1 1 2 1 0 -0 0 -3 0 2 9 1 -1 -1 -1 -2 -1 1 -2 -1 -2 -2 -7 -0 -4 -4 -4 -0 -0 -0 -5 -2
-5 -6 -1 -4 -4 -3 -4 -3 -1 -4 2 -2 -2 -0 2 -3 -0 0 0 1 2 0 -1 -0 1 -1 -0 -0 -0 -1 -1 0 -2 -1 -0 -1 -2 -2 0 -1 -6 -2 -0 0 -11 -12 -2
-1 -6 -2 -5 -1 -1 1 -1 -3 -4 -1 1 2 -2 -0 -2 -1 1 0 0 -1 -0 -1 2 -3 -2 -0 0 -2 -0 -1 0 -4 1 0 -2 -4 -1 -1 -2 -5 -1 -2 -8 -5 3 -1
-4 -1 -3 -7 -8 -2 -2 -3 -4 -2 -4 1 -0 -2 0 -1 -2 0 0 3 3 1 -1 2 1 0 1 -1 -2 -2 -1 -1 -1 -2 -1 -3 -4 -5 -4 -4 1 1 -0 -0 -0 -6 -2
Height
1504 1500 1496 1493 1489 1484 1481 1478 1475 1472 1470 1468 1465 1463 1462 1461 1460 1459 1458 1457 1456 1455 1457 1459 1463 1466 1468 1471 1468 1467 1468 1469 1475 1479 1483 1487 1489 1493 1494 1496 1498 1500 1503 1507 1514 1514 1521
1504 1500 1495 1491 1488 1483 1479 1476 1472 1470 1466 1464 1461 1460 1459 1458 1458 1456 1456 1455 1454 1454 1455 1458 1460 1464 1467 1469 1466 1466 1469 1470 1473 1477 1482 1485 1488 1491 1492 1493 1497 1497 1504 1511 1515 1520 1524
1504 1499 1495 1490 1487 1483 1478 1474 1470 1467 1464 1461 1458 1456 1455 1454 1454 1453 1454 1453 1452 1452 1454 1456 1459 1463 1465 1463 1464 1465 1467 1470 1472 1475 1479 1484 1488 1491 1491 1492 1493 1498 1510 1514 1517 1516 1528
1502 1495 1493 1489 1484 1480 1477 1473 1469 1464 1461 1458 1455 1453 1452 1452 1452 1451 1452 1452 1451 1451 1452 1455 1459 1463 1461 1460 1462 1464 1465 1467 1471 1475 1481 1485 1488 1490 1490 1490 1491 1496 1504 1516 1515 1516 1523
1500 1497 1491 1486 1483 1479 1474 1471 1467 1462 1458 1456 1452 1450 1449 1449 1450 1450 1450 1450 1450 1451 1453 1456 1460 1462 1460 1458 1459 1463 1464 1465 1469 1475 1481 1486 1489 1489 1489 1494 1500 1496 1506 1508 1516 1517 1519
1498 1495 1491 1484 1480 1477 1473 1468 1463 1460 1456 1452 1449 1447 1447 1447 1448 1450 1450 1450 1451 1452 1455 1458 1460 1465 1457 1455 1456 1461 1464 1467 1469 1474 1480 1484 1486 1489 1492 1496 1499 1500 1502 1505 1512 1523 1529
1499 1494 1490 1486 1479 1473 1470 1466 1461 1457 1454 1450 1447 1444 1444 1444 1446 1447 1449 1452 1455 1458 1453 1450 1450 1453 1450 1454 1458 1461 1464 1467 1471 1473 1478 1480 1487 1489 1487 1489 1488 1493 1495 1503 1519 1528 1537
1497 1492 1488 1483 1478 1474 1468 1463 1459 1455 1451 1448 1444 1441 1441 1441 1443 1445 1447 1448 1449 1451 1451 1448 1450 1452 1453 1455 1457 1461 1464 1467 1470 1475 1477 1484 1485 1482 1485 1488 1490 1491 1497 1521 1529 1533 1538
1495 1490 1487 1482 1476 1471 1466 1462 1457 1452 1447 1443 1440 1438 1438 1438 1440 1443 1443 1447 1450 1450 1450 1445 1446 1448 1451 1454 1454 1457 1461 1464 1468 1473 1476 1480 1476 1478 1483 1487 1490 1491 1497 1510 1514 1538 1546
1494 1489 1484 1481 1476 1469 1463 1459 1454 1449 1444 1439 1436 1434 1434 1435 1441 1440 1442 1447 1448 1450 1453 1443 1442 1444 1448 1451 1453 1455 1458 1462 1465 1470 1476 1476 1471 1474 1481 1482 1485 1492 1484 1496 1514 1515 1526
1493 1489 1487 1480 1474 1469 1463 1455 1451 1446 1441 1437 1433 1431 1431 1434 1435 1439 1443 1444 1449 1452 1456 1438 1441 1441 1442 1448 1449 1452 1455 1459 1463 1464 1471 1472 1469 1473 1476 1473 1478 1483 1482 1492 1499 1505 1521
1497 1492 1484 1478 1474 1468 1463 1456 1448 1444 1439 1436 1433 1431 1431 1433 1436 1439 1441 1444 1450 1457 1463 1438 1436 1438 1442 1445 1448 1450 1455 1459 1459 1462 1464 1466 1464 1466 1466 1467 1472 1475 1483 1492 1498 1503 1510
1495 1491 1485 1480 1474 1468 1461 1454 1448 1442 1439 1437 1435 1434 1434 1435 1438 1440 1442 1445 1455 1453 1431 1437 1436 1435 1439 1444 1447 1448 1452 1458 1461 1469 1470 1466 1465 1463 1463 1468 1470 1473 1483 1507 1511 1511 1503
1496 1493 1487 1480 1471 1466 1460 1452 1446 1440 1437 1437 1437 1435 1435 1437 1438 1439 1444 1447 1449 1436 1434 1430 1431 1435 1439 1440 1445 1448 1452 1457 1456 1457 1466 1470 1478 1464 1461 1464 1468 1473 1472 1488 1489 1499 1497
1495 1490 1485 1479 1471 1464 1458 1451 1445 1438 1435 1436 1437 1437 1437 1438 1439 1441 1443 1455 1444 1440 1441 1438 1433 1439 1440 1439 1441 1445 1451 1450 1453 1454 1458 1465 1463 1463 1462 1463 1464 1469 1473 1470 1480 1483 1494
1497 1492 1485 1479 1473 1465 1458 1451 1444 1438 1435 1435 1438 1437 1438 1437 1439 1442 1444 1438 1441 1442 1441 1440 1437 1432 1437 1437 1440 1442 1447 1453 1453 1454 1454 1456 1466 1464 1464 1463 1464 1464 1464 1473 1481 1487 1487
1497 1494 1486 1480 1472 1464 1458 1452 1444 1438 1436 1435 1437 1438 1438 1438 1441 1443 1441 1442 1442 1442 1440 1440 1442 1439 1435 1434 1434 1439 1443 1455 1454 1453 1453 1454 1459 1469 1466 1477 1471 1467 1466 1466 1468 1473 1475
1498 1493 1487 1481 1475 1467 1461 1453 1446 1440 1438 1436 1436 1439 1439 1441 1444 1441 1441 1443 1443 1442 1440 1440 1442 1442 1442 1442 1433 1445 1445 1449 1453 1453 1453 1458 1465 1477 1480 1479 1479 1478 1477 1473 1465 1471 1482
1498 1493 1488 1481 1477 1468 1462 1457 1450 1442 1439 1440 1437 1438 1439 1440 1446 1447 1445 1444 1443 1442 1442 1441 1440 1440 1446 1446 1444 1449 1452 1455 1452 1452 1453 1455 1470 1485 1478 1480 1480 1483 1487 1485 1482 1480 1481
1499 1495 1490 1482 1475 1470 1461 1457 1452 1447 1441 1440 1440 1440 1439 1439 1439 1440 1443 1441 1444 1444 1443 1443 1443 1444 1442 1447 1449 1452 1456 1456 1454 1452 1454 1454 1473 1473 1462 1469 1474 1483 1490 1490 1489 1490 1499
1499 1494 1488 1480 1476 1469 1463 1455 1451 1446 1443 1440 1441 1443 1444 1442 1440 1438 1439 1440 1442 1441 1442 1444 1444 1442 1442 1447 1449 1452 1457 1457 1456 1455 1455 1457 1475 1480 1485 1484 1487 1496 1497 1495 1501 1517 1497
1497 1494 1489 1484 1479 1472 1466 1460 1452 1447 1443 1442 1443 1445 1443 1442 1441 1440 1439 1438 1438 1441 1442 1442 1443 1441 1442 1443 1440 1445 1449 1453 1449 1454 1456 1459 1478 1476 1491 1490 1491 1505 1507 1507 1511 1523 1528
1499 1494 1487 1483 1479 1474 1469 1462 1455 1449 1446 1445 1446 1447 1447 1443 1441 1441 1441 1438 1437 1438 1441 1440 1439 1443 1445 1446 1442 1444 1449 1451 1451 1454 1457 1460 1471 1483 1499 1494 1492 1500 1524 1516 1524 1528 1524
1497 1494 1492 1487 1482 1477 1473 1466 1461 1454 1451 1452 1450 1446 1446 1444 1443 1443 1441 1439 1439 1439 1439 1441 1440 1442 1447 1446 1447 1449 1449 1452 1452 1455 1454 1459 1467 1482 1499 1493 1493 1529 1526 1525 1528 1536 1535
1496 1495 1490 1485 1481 1478 1474 1471 1464 1461 1457 1453 1453 1450 1448 1447 1445 1443 1442 1442 1441 1441 1442 1443 1442 1442 1444 1446 1449 1451 1454 1454 1462 1461 1459 1458 1467 1491 1497 1512 1524 1529 1527 1527 1523 1537 1540
1495 1493 1490 1487 1481 1477 1474 1471 1466 1463 1459 1454 1454 1451 1450 1449 1450 1450 1445 1442 1442 1444 1445 1444 1444 1444 1446 1446 1445 1465 1462 1457 1466 1466 1463 1463 1465 1474 1501 1502 1500 1521 1524 1524 1525 1531 1537
1496 1492 1489 1485 1482 1477 1473 1468 1464 1463 1460 1455 1454 1452 1450 1449 1451 1449 1447 1445 1444 1444 1445 1446 1446 1447 1447 1446 1448 1465 1468 1460 1469 1469 1475 1473 1480 1490 1494 1526 1525 1523 1523 1525 1522 1527 1532
1495 1492 1488 1482 1481 1477 1470 1467 1462 1461 1459 1456 1454 1451 1451 1449 1452 1449 1447 1446 1445 1445 1445 1445 1448 1448 1449 1449 1450 1458 1465 1473 1482 1491 1490 1482 1486 1496 1505 1515 1506 1521 1526 1523 1526 1528 1532
1491 1489 1488 1481 1478 1477 1470 1466 1462 1459 1458 1455 1453 1451 1450 1449 1452 1452 1450 1449 1447 1447 1447 1445 1446 1446 1447 1448 1455 1462 1475 1480 1483 1493 1492 1496 1502 1498 1511 1513 1518 1520 1521 1522 1525 1528 1534